Weather History for Fort Leonard Wood, MO

Change the Weather History Date:

Sunday, October 6, 2013

  Actual Average Record
Temperature  
Mean Temperature 48 °F -  
Max Temperature 55 °F 69 °F 84 °F (2007)
Min Temperature 42 °F 51 °F 34 °F (2012)
Degree Days  
Heating Degree Days 16    
Growing Degree Days 0 (Base 50)    
Moisture  
Dew Point 43 °F    
Average Humidity 80    
Maximum Humidity 100    
Minimum Humidity 58    
Precipitation  
Precipitation 0.00 in - - ()
Sea Level Pressure  
Sea Level Pressure 29.94 in    
Wind  
Wind Speed 6 mph (WSW)    
Max Wind Speed 13 mph    
Max Gust Speed 23 mph    
Visibility 10 miles    
Events      
Averages and records for this station are not official NWS values.
T = Trace of Precipitation, MM = Missing Value Source: NWS Daily Summary

Daily Weather History Graph

Daily Weather History Graph

Search for Another Location

Airport:

Trip Planner

Search our weather history database for the weather conditions in past years. The results will help you decide how hot, cold, wet, or windy it might be!

Date:

Astronomy

Oct. 06, 2013 Rise Set
Actual Time 7:08 AM CDT 6:43 PM CDT
Civil Twilight 6:42 AM CDT 7:09 PM CDT
Nautical Twilight 6:12 AM CDT 7:40 PM CDT
Astronomical Twilight 5:41 AM CDT 8:10 PM CDT
Moon 8:51 AM CDT (10/6) 7:46 PM CDT (10/6)
Length of Visible Light 12h 27m
Length of Day
11h 34m
Waxing Crescent, 3% of the Moon is Illuminated
Oct 6
Waxing Crescent
Oct 11
First Quarter
Oct 18
Full
Oct 26
Last Quarter
Nov 3
New

Hourly Weather History & Observations

Time (CDT) Temp. Windchill Dew Point Humidity Pressure Visibility Wind Dir Wind Speed Gust Speed Precip Events Conditions
12:58 AM 47.5 °F - 47.5 °F 100% 29.93 in 10.0 mi WSW 4.6 mph - N/A   Clear
1:58 AM 47.3 °F - 47.3 °F 100% 29.92 in 10.0 mi WSW 4.6 mph - N/A   Clear
2:58 AM 46.9 °F - 45.9 °F 96% 29.91 in 10.0 mi West 6.9 mph - N/A   Clear
3:58 AM 45.3 °F 43.0 °F 44.8 °F 98% 29.89 in 10.0 mi West 4.6 mph - N/A   Clear
4:58 AM 44.1 °F 40.8 °F 43.9 °F 99% 29.91 in 10.0 mi WSW 5.8 mph - N/A   Clear
5:58 AM 43.9 °F 40.5 °F 42.6 °F 95% 29.92 in 10.0 mi WSW 5.8 mph - N/A   Clear
6:58 AM 42.1 °F 40.2 °F 41.7 °F 99% 29.93 in 10.0 mi SW 3.5 mph - N/A   Clear
7:58 AM 43.7 °F 42.1 °F 43.0 °F 97% 29.93 in 10.0 mi WSW 3.5 mph - N/A   Clear
8:58 AM 47.1 °F - 42.6 °F 84% 29.94 in 10.0 mi Variable 6.9 mph - N/A   Clear
9:58 AM 49.3 °F - 40.5 °F 72% 29.94 in 10.0 mi WNW 12.7 mph 23.0 mph N/A   Clear
10:58 AM 51.8 °F - 41.0 °F 67% 29.95 in 10.0 mi West 8.1 mph 17.3 mph N/A   Mostly Cloudy
11:08 AM 51.8 °F - 41.0 °F 67% 29.94 in 10.0 mi WSW 9.2 mph 18.4 mph N/A   Mostly Cloudy
11:58 AM 53.8 °F - 42.1 °F 65% 29.95 in 10.0 mi Variable 6.9 mph - N/A   Overcast
12:58 PM 54.7 °F - 42.1 °F 62% 29.93 in 10.0 mi West 9.2 mph - N/A   Partly Cloudy
1:58 PM 54.0 °F - 42.1 °F 64% 29.94 in 10.0 mi Variable 6.9 mph - N/A   Overcast
2:58 PM 54.5 °F - 41.5 °F 62% 29.94 in 10.0 mi West 9.2 mph 17.3 mph N/A   Overcast
3:58 PM 54.5 °F - 41.9 °F 62% 29.94 in 10.0 mi West 8.1 mph - N/A   Mostly Cloudy
4:58 PM 55.6 °F - 41.2 °F 58% 29.94 in 10.0 mi West 11.5 mph 18.4 mph N/A   Mostly Cloudy
5:58 PM 54.5 °F - 42.1 °F 63% 29.94 in 10.0 mi Variable 6.9 mph - N/A   Clear
6:58 PM 50.0 °F - 44.4 °F 81% 29.97 in 10.0 mi WSW 3.5 mph - N/A   Clear
7:58 PM 49.6 °F - 45.1 °F 84% 29.95 in 10.0 mi SSW 3.5 mph - N/A   Overcast
8:58 PM 50.9 °F - 44.8 °F 80% 29.94 in 10.0 mi Variable 5.8 mph - N/A   Overcast
9:58 PM 50.9 °F - 45.5 °F 82% 29.94 in 9.0 mi Variable 5.8 mph - N/A   Overcast
10:58 PM 52.5 °F - 46.0 °F 79% 29.96 in 10.0 mi West 3.5 mph - N/A   Overcast
11:58 PM 53.4 °F - 46.6 °F 78% 29.97 in 10.0 mi NW 5.8 mph - N/A   Overcast